| time (UTC) | temp F | wind direction | speed MPH | gust MPH | rain 1hr in | rain 24hr in | rain mn in | humidity % | barometer mb |
| 20260831070607 | 62 | 248 | 8.0 | 13.0 | 0.00 | 0.05 | 0.05 | 62 | 1021.6 |
| 20260831064608 | 62 | 246 | 6.0 | 12.0 | 0.00 | 0.05 | 0.05 | 63 | 1021.6 |
| 20260831063601 | 62 | 255 | 5.0 | 11.0 | 0.00 | 0.05 | 0.05 | 63 | 1021.6 |
| 20260831062601 | 62 | 261 | 7.0 | 12.0 | 0.00 | 0.05 | 0.05 | 63 | 1021.6 |
| 20260831061600 | 62 | 267 | 7.0 | 11.0 | 0.00 | 0.05 | 0.05 | 64 | 1021.4 |
| 20260831060601 | 62 | 254 | 7.0 | 11.0 | 0.00 | 0.05 | 0.05 | 64 | 1021.4 |
| 20260831055600 | 62 | 265 | 8.0 | 13.0 | 0.00 | 0.05 | 0.05 | 64 | 1021.3 |
| 20260831054601 | 62 | 262 | 8.0 | 13.0 | 0.00 | 0.05 | 0.05 | 64 | 1021.2 |
| 20260831053601 | 62 | 257 | 7.0 | 13.0 | 0.00 | 0.05 | 0.05 | 65 | 1021.2 |
| 20260831052602 | 62 | 279 | 7.0 | 10.0 | 0.00 | 0.05 | 0.05 | 65 | 1021.1 |
| 20260831051558 | 62 | 262 | 9.0 | 12.0 | 0.00 | 0.05 | 0.05 | 65 | 1021.0 |
| 20260831050558 | 62 | 271 | 8.0 | 13.0 | 0.01 | 0.05 | 0.05 | 66 | 1021.0 |
| 20260831045558 | 62 | 244 | 9.0 | 14.0 | 0.01 | 0.05 | 0.05 | 67 | 1021.0 |
| 20260831044558 | 62 | 253 | 4.0 | 10.0 | 0.01 | 0.05 | 0.05 | 69 | 1021.0 |
| 20260831043559 | 61 | 235 | 0.0 | 2.0 | 0.01 | 0.05 | 0.05 | 70 | 1021.0 |
| 20260831042559 | 61 | 235 | 1.0 | 3.0 | 0.01 | 0.05 | 0.05 | 70 | 1020.9 |
| 20260831040558 | 62 | 236 | 2.0 | 4.0 | 0.00 | 0.04 | 0.04 | 69 | 1020.9 |
| 20260831035556 | 62 | 242 | 3.0 | 7.0 | 0.00 | 0.04 | 0.04 | 69 | 1020.8 |
| 20260831034555 | 62 | 252 | 2.0 | 4.0 | 0.00 | 0.04 | 0.04 | 69 | 1020.7 |
| 20260831033556 | 62 | 239 | 1.0 | 3.0 | 0.00 | 0.04 | 0.04 | 68 | 1020.7 |
| 20260831032556 | 62 | 206 | 1.0 | 3.0 | 0.00 | 0.04 | 0.04 | 68 | 1020.8 |
| 20260831030557 | 62 | 206 | 1.0 | 2.0 | 0.00 | 0.04 | 0.04 | 68 | 1020.8 |
| 20260831025557 | 62 | 206 | 0.0 | 2.0 | 0.00 | 0.04 | 0.04 | 68 | 1020.7 |
| 20260831024557 | 63 | 206 | 1.0 | 2.0 | 0.00 | 0.04 | 0.04 | 67 | 1020.7 |
| 20260831023555 | 63 | 206 | 0.0 | 2.0 | 0.00 | 0.04 | 0.04 | 66 | 1020.7 |
| 20260831022556 | 63 | 206 | 1.0 | 2.0 | 0.00 | 0.04 | 0.04 | 66 | 1020.5 |
| 20260831021557 | 64 | 206 | 1.0 | 5.0 | 0.00 | 0.04 | 0.04 | 66 | 1020.5 |
| 20260831015552 | 64 | 229 | 3.0 | 8.0 | 0.00 | 0.04 | 0.04 | 65 | 1020.5 |
| 20260831014553 | 64 | 187 | 4.0 | 8.0 | 0.00 | 0.04 | 0.04 | 65 | 1020.7 |
| 20260831013551 | 64 | 217 | 3.0 | 6.0 | 0.00 | 0.04 | 0.04 | 64 | 1020.7 |
| 20260831011551 | 64 | 227 | 4.0 | 8.0 | 0.00 | 0.04 | 0.04 | 64 | 1020.8 |
| 20260831010550 | 65 | 215 | 6.0 | 11.0 | 0.00 | 0.04 | 0.04 | 63 | 1020.5 |
| 20260831005548 | 64 | 241 | 7.0 | 13.0 | 0.00 | 0.04 | 0.04 | 63 | 1020.5 |
| 20260831003547 | 63 | 280 | 5.0 | 12.0 | 0.01 | 0.04 | 0.04 | 63 | 1020.5 |
| 20260831002549 | 63 | 229 | 8.0 | 13.0 | 0.01 | 0.04 | 0.04 | 64 | 1020.7 |
| 20260831001548 | 62 | 222 | 6.0 | 13.0 | 0.01 | 0.04 | 0.04 | 66 | 1020.4 |
| 20260831000547 | 62 | 191 | 4.0 | 10.0 | 0.01 | 0.04 | 0.04 | 67 | 1020.1 |
| 20260830235547 | 63 | 213 | 7.0 | 14.0 | 0.02 | 0.04 | 0.04 | 67 | 1019.9 |
| 20260830234545 | 62 | 183 | 5.0 | 12.0 | 0.04 | 0.04 | 0.04 | 69 | 1020.3 |
| 20260830233546 | 63 | 254 | 6.0 | 12.0 | 0.03 | 0.03 | 0.03 | 69 | 1020.3 |
| 20260830232546 | 62 | 277 | 6.0 | 13.0 | 0.03 | 0.03 | 0.03 | 69 | 1020.1 |
| 20260830231541 | 63 | 190 | 9.0 | 20.0 | 0.03 | 0.03 | 0.03 | 69 | 1019.7 |
| 20260830230541 | 63 | 194 | 9.0 | 21.0 | 0.03 | 0.03 | 0.03 | 69 | 1020.2 |
| 20260830225541 | 64 | 272 | 11.0 | 16.0 | 0.02 | 0.02 | 0.02 | 68 | 1020.8 |
| 20260830224541 | 64 | 227 | 12.0 | 22.0 | 0.00 | 0.00 | 0.00 | 65 | 1020.4 |
| 20260830223541 | 66 | 281 | 2.0 | 12.0 | 0.00 | 0.00 | 0.00 | 59 | 1019.2 |
| 20260830221541 | 66 | 155 | 2.0 | 3.0 | 0.00 | 0.00 | 0.00 | 59 | 1018.2 |
| 20260830220542 | 66 | 155 | 3.0 | 6.0 | 0.00 | 0.00 | 0.00 | 60 | 1018.2 |
| 20260830215542 | 66 | 165 | 3.0 | 8.0 | 0.00 | 0.00 | 0.00 | 60 | 1018.0 |
| 20260830214544 | 66 | 152 | 3.0 | 7.0 | 0.00 | 0.00 | 0.00 | 59 | 1018.0 |
| 20260830213542 | 66 | 127 | 3.0 | 5.0 | 0.00 | 0.00 | 0.00 | 60 | 1018.1 |
| 20260830211542 | 67 | 141 | 3.0 | 5.0 | 0.00 | 0.00 | 0.00 | 59 | 1018.0 |
| 20260830210541 | 67 | 143 | 1.0 | 4.0 | 0.00 | 0.00 | 0.00 | 58 | 1018.2 |
| 20260830205541 | 67 | 144 | 1.0 | 3.0 | 0.00 | 0.00 | 0.00 | 59 | 1018.3 |
| 20260830203543 | 68 | 145 | 1.0 | 3.0 | 0.00 | 0.00 | 0.00 | 59 | 1018.2 |
| 20260830202536 | 68 | 145 | 1.0 | 3.0 | 0.00 | 0.00 | 0.00 | 59 | 1018.3 |
| 20260830201536 | 68 | 145 | 1.0 | 3.0 | 0.00 | 0.00 | 0.00 | 59 | 1018.3 |
| 20260830200536 | 68 | 145 | 3.0 | 4.0 | 0.00 | 0.00 | 0.00 | 60 | 1018.4 |
| 20260830195535 | 69 | 182 | 0.0 | 4.0 | 0.00 | 0.00 | 0.00 | 60 | 1018.3 |
| 20260830193537 | 69 | 233 | 0.0 | 0.0 | 0.00 | 0.00 | 0.00 | 57 | 1018.2 |
| 20260830192536 | 69 | 233 | 0.0 | 0.0 | 0.00 | 0.00 | 0.00 | 57 | 1018.3 |
| 20260830191535 | 70 | 233 | 0.0 | 0.0 | 0.00 | 0.00 | 0.00 | 57 | 1018.4 |
| 20260830190538 | 70 | 233 | 0.0 | 0.0 | 0.00 | 0.00 | 0.00 | 58 | 1018.3 |
| 20260830185533 | 70 | 233 | 0.0 | 0.0 | 0.00 | 0.00 | 0.00 | 58 | 1018.2 |
| 20260830183533 | 71 | 286 | 0.0 | 0.0 | 0.00 | 0.00 | 0.00 | 55 | 1018.2 |
| 20260830182533 | 71 | 286 | 0.0 | 0.0 | 0.00 | 0.00 | 0.00 | 55 | 1018.2 |
| 20260830180542 | 73 | 286 | 0.0 | 0.0 | 0.00 | 0.00 | 0.00 | 50 | 1018.1 |
| 20260830174533 | 74 | 286 | 0.0 | 0.0 | 0.00 | 0.00 | 0.00 | 48 | 1018.1 |
| 20260830173533 | 74 | 286 | 0.0 | 2.0 | 0.00 | 0.00 | 0.00 | 48 | 1018.1 |
| 20260830172535 | 75 | 286 | 0.0 | 0.0 | 0.00 | 0.00 | 0.00 | 50 | 1018.0 |
| 20260830171533 | 76 | 286 | 2.0 | 4.0 | 0.00 | 0.00 | 0.00 | 46 | 1018.1 |
| 20260830170534 | 76 | 286 | 3.0 | 4.0 | 0.00 | 0.00 | 0.00 | 45 | 1018.1 |
| 20260830165532 | 76 | 276 | 3.0 | 7.0 | 0.00 | 0.00 | 0.00 | 44 | 1018.1 |
| 20260830163533 | 77 | 300 | 7.0 | 11.0 | 0.00 | 0.00 | 0.00 | 43 | 1018.1 |
| 20260830162533 | 78 | 301 | 7.0 | 10.0 | 0.00 | 0.00 | 0.00 | 42 | 1018.2 |
| 20260830160533 | 79 | 321 | 8.0 | 12.0 | 0.00 | 0.00 | 0.00 | 41 | 1018.1 |
| 20260830155533 | 79 | 315 | 6.0 | 12.0 | 0.00 | 0.00 | 0.00 | 39 | 1018.1 |
| 20260830154533 | 80 | 282 | 6.0 | 11.0 | 0.00 | 0.00 | 0.00 | 37 | 1018.0 |
| 20260830153534 | 79 | 277 | 6.0 | 11.0 | 0.00 | 0.00 | 0.00 | 39 | 1018.1 |
| 20260830151534 | 79 | 254 | 10.0 | 15.0 | 0.00 | 0.00 | 0.00 | 34 | 1018.2 |
| 20260830150531 | 79 | 292 | 8.0 | 15.0 | 0.00 | 0.00 | 0.00 | 36 | 1018.3 |
| 20260830144530 | 79 | 288 | 8.0 | 13.0 | 0.00 | 0.00 | 0.00 | 37 | 1018.4 |
| 20260830143532 | 79 | 285 | 8.0 | 13.0 | 0.00 | 0.00 | 0.00 | 37 | 1018.5 |
| 20260830141531 | 79 | 253 | 10.0 | 16.0 | 0.00 | 0.00 | 0.00 | 39 | 1018.5 |
| 20260830134527 | 78 | 248 | 7.0 | 13.0 | 0.00 | 0.00 | 0.00 | 41 | 1018.6 |
| 20260830133527 | 78 | 237 | 10.0 | 16.0 | 0.00 | 0.00 | 0.00 | 43 | 1018.9 |
| 20260830132528 | 78 | 268 | 6.0 | 18.0 | 0.00 | 0.00 | 0.00 | 41 | 1018.9 |
| 20260830131527 | 78 | 271 | 7.0 | 13.0 | 0.00 | 0.00 | 0.00 | 44 | 1019.2 |
| 20260830130527 | 78 | 261 | 8.0 | 16.0 | 0.00 | 0.00 | 0.00 | 43 | 1019.2 |
| 20260830125526 | 78 | 283 | 8.0 | 13.0 | 0.00 | 0.00 | 0.00 | 42 | 1019.2 |
| 20260830124528 | 77 | 294 | 8.0 | 14.0 | 0.00 | 0.00 | 0.00 | 46 | 1019.2 |
| 20260830123526 | 77 | 198 | 7.0 | 12.0 | 0.00 | 0.00 | 0.00 | 42 | 1019.3 |
| 20260830122527 | 77 | 256 | 3.0 | 10.0 | 0.00 | 0.00 | 0.00 | 45 | 1019.3 |
| 20260830115527 | 76 | 217 | 6.0 | 11.0 | 0.00 | 0.00 | 0.00 | 45 | 1019.6 |
| 20260830114528 | 76 | 217 | 7.0 | 13.0 | 0.00 | 0.00 | 0.00 | 48 | 1019.7 |
| 20260830113521 | 75 | 274 | 8.0 | 13.0 | 0.00 | 0.00 | 0.00 | 47 | 1019.5 |
| 20260830112520 | 75 | 275 | 7.0 | 13.0 | 0.00 | 0.00 | 0.00 | 47 | 1019.7 |
| 20260830111521 | 74 | 267 | 6.0 | 12.0 | 0.00 | 0.00 | 0.00 | 47 | 1019.7 |
| 20260830110522 | 74 | 263 | 7.0 | 12.0 | 0.00 | 0.00 | 0.00 | 47 | 1019.8 |
| 20260830105521 | 74 | 262 | 5.0 | 13.0 | 0.00 | 0.00 | 0.00 | 52 | 1019.8 |
| 20260830104520 | 74 | 275 | 6.0 | 13.0 | 0.00 | 0.00 | 0.00 | 52 | 1019.9 |
| 20260830103521 | 73 | 260 | 7.0 | 13.0 | 0.00 | 0.00 | 0.00 | 50 | 1020.0 |
| 20260830102520 | 73 | 280 | 8.0 | 12.0 | 0.00 | 0.00 | 0.00 | 51 | 1020.1 |
| 20260830101536 | 73 | 338 | 4.0 | 10.0 | 0.00 | 0.00 | 0.00 | 52 | 1020.2 |
| 20260830100515 | 73 | 269 | 2.0 | 9.0 | 0.00 | 0.00 | 0.00 | 53 | 1020.3 |
| 20260830095514 | 72 | 251 | 3.0 | 7.0 | 0.00 | 0.00 | 0.00 | 52 | 1020.4 |
| 20260830094515 | 71 | 286 | 5.0 | 10.0 | 0.00 | 0.00 | 0.00 | 52 | 1020.4 |
| 20260830093514 | 71 | 307 | 4.0 | 9.0 | 0.00 | 0.00 | 0.00 | 54 | 1020.5 |
| 20260830091514 | 70 | 298 | 5.0 | 10.0 | 0.00 | 0.00 | 0.00 | 53 | 1020.7 |
| 20260830090516 | 70 | 246 | 4.0 | 10.0 | 0.00 | 0.00 | 0.00 | 55 | 1020.7 |
| 20260830084515 | 69 | 269 | 4.0 | 9.0 | 0.00 | 0.00 | 0.00 | 56 | 1020.5 |
| 20260830083512 | 69 | 219 | 3.0 | 7.0 | 0.00 | 0.00 | 0.00 | 56 | 1020.7 |
| 20260830082513 | 68 | 280 | 1.0 | 6.0 | 0.00 | 0.00 | 0.00 | 54 | 1020.7 |
| 20260830080512 | 67 | 240 | 3.0 | 5.0 | 0.00 | 0.00 | 0.00 | 55 | 1020.9 |
| 20260830075513 | 67 | 240 | 2.0 | 5.0 | 0.00 | 0.00 | 0.00 | 55 | 1020.9 |
| 20260830074514 | 67 | 326 | 3.0 | 4.0 | 0.00 | 0.00 | 0.00 | 56 | 1020.8 |
| 20260830073513 | 66 | 337 | 4.0 | 7.0 | 0.00 | 0.00 | 0.00 | 56 | 1020.7 |
| 20260830072510 | 67 | 284 | 2.0 | 4.0 | 0.00 | 0.00 | 0.00 | 56 | 1020.5 |